Regional Weather Roundup
Issued by NWS

Home | Current Version | Previous Version | Graphics & Text | Print | Product List | Glossary On
Versions: 1 2 3 4 5 6 7 8 9 10 11 12 13 14 15 16 17 18 19 20 21 22 23 24 25 26 27 28 29 30 31 32 33 34 35 36 37 38 39 40 41 42 43 44 45 46 47 48 49
000
ASUS45 KCYS 030710
RWRWY

WYOMING REGIONAL WEATHER ROUNDUP
NATIONAL WEATHER SERVICE CHEYENNE WY
1200 AM MST TUE MAR 03 2015

NOTE:  "FAIR" INDICATES FEW OR NO CLOUDS BELOW 12,000 FEET
WITH NO SIGNIFICANT WEATHER AND/OR OBSTRUCTIONS TO VISIBILITY.

WYZ001-030800-
YELLOWSTONE NATIONAL PARK

CITY           SKY/WX    TMP DP  RH WIND       PRES   REMARKS
LK YELLOWSTONE   N/A     17  12  80 VRB3      29.65R
W YELLOWSTONE  NOT AVBL

$$
WYZ002>013-054>058-071-098>099-030800-
NORTHERN WYOMING

CITY           SKY/WX    TMP DP  RH WIND       PRES   REMARKS
JACKSON        CLOUDY    23  21  93 CALM      29.64S VSB 1/2
CODY           CLOUDY    16  12  86 NW14G25   29.86R WCI   1
GREYBULL       LGT SNOW  24  15  68 N20       29.78R WCI  10
WORLAND        LGT SNOW  22  18  85 NW24G31   29.75R VSB 3/4 WCI   5
SHERIDAN       SNOW      18  14  84 NW25      29.92R VSB 1/2 WCI   0
BUFFALO        SNOW      19  15  84 NW30G43   29.80R VSB 1/2 WCI   0
GILLETTE       LGT SNOW  20  17  88 N30       29.78R VSB 3/4 WCI   1
HULETT         SNOW      23  21  93 N15       29.77S VSB 1/2 WCI  10
NEWCASTLE      MIX PCPN  28  21  74 NW10      29.65F WCI  19

$$
WYZ014>020-022>026-101>103-030800-
CENTRAL WYOMING

CITY           SKY/WX    TMP DP  RH WIND       PRES   REMARKS
BIG PINEY      FAIR      23  17  78 NW14      29.62R WCI  11
PINEDALE       LGT SNOW  23  23 100 NW13      29.61S WCI  11
DUBOIS         LGT SNOW  19  19 100 SE8       29.61S WCI   9
LANDER         LGT SNOW  25  23  92 NW8       29.69R VSB 3/4 WCI  16
RIVERTON       LGT SNOW  22  18  85 N23G33    29.69S FOG     WCI   6
CASPER         SNOW      23  21  92 NE20G25   29.67R VSB 1/2 WCI   8
DOUGLAS        FLURRIES  26  23  88 N21G30    29.62R WCI  12

$$
WYZ021-027>030-104>119-030800-
SOUTHERN WYOMING

CITY           SKY/WX    TMP DP  RH WIND       PRES   REMARKS
EVANSTON       MOCLDY    23  20  88 W18       29.72R WCI   9
KEMMERER       FAIR      23  21  93 W17G23    29.66R WCI   9
FORT BRIDGER   CLOUDY    28  27  99 W18G26    29.71R WCI  15
ROCK SPRINGS   CLOUDY    28  25  88 W25G32    29.63R WCI  13
DIXON          CLOUDY    32  30  92 SW22G32   29.66S WCI  19
RAWLINS        LGT SNOW  25  22  88 N21       29.58R VSB 3/4 WCI  11
SARATOGA       LGT SNOW  30  30 100 SW28      29.58S VSB 3/4 WCI  16
LARAMIE        FAIR      29  22  75 SW16      29.52F WCI  17
CHEYENNE       FAIR      40  20  44 SW20G29   29.50F WCI  30
TORRINGTON     CLOUDY    29  27  92 NE6       29.56F FOG     WCI  23
PINE BLUFFS    PTSUNNY   28  27  93 N3        29.53F FOG

$$



USA.gov is the U.S. government's official web portal to all federal, state and local government web resources and services.